Date String (YYYY-MM-DD hh:mm:ss) UTC,Instrument flags,Ambient pressure (hPa),Sample flow (lpm),Bypass flow (lpm),Sample temperature (°C),Ambient temperature (°C),ASC tube jacket temperature (°C),LED temperature (°C),Box temperature (°C),Sample RH (%),Span deviation,Mass concentration (μg/m³),Mass concentration (μg/m³),Mass concentration (μg/m³)
DateTimeUTC,F1_M11,P_M11,Q1_M11,Q2_M11,T1_M11,T2_M11,T3_M11,T4_M11,T5_M11,U1_M11,ZSPAN_M11,X0_M11,X2_M11,X1_M11
2022-01-05 02:00:00,,0821.7,5.01,0.00,22.2,22.6,00.0,31.1,24.1,09.4,0000.0,0003.58,0000.98,0000.36
2022-01-05 02:01:00,,0821.6,4.99,0.00,22.2,22.3,00.0,31.1,24.0,09.3,0000.0,0003.43,0001.02,0000.37
2022-01-05 02:02:00,,0821.7,5.00,0.00,22.2,22.1,00.0,31.1,23.9,09.1,0000.0,0003.57,0001.06,0000.37
2022-01-05 02:03:00,,0821.8,5.00,0.00,22.2,22.0,00.0,31.1,23.8,08.9,0000.0,0003.66,0001.06,0000.37
2022-01-05 02:04:00,,0821.8,5.00,0.00,22.2,21.9,00.0,31.1,23.9,09.4,0000.0,0003.76,0001.06,0000.37
2022-01-05 02:05:00,,0821.8,5.00,0.00,22.2,21.8,00.0,31.1,23.9,09.5,0000.0,0003.65,0001.04,0000.38
2022-01-05 02:06:00,,0822.0,5.00,0.00,22.2,21.7,00.0,31.2,23.9,09.4,0000.0,0003.77,0001.07,0000.39
2022-01-05 02:07:00,,0822.1,4.99,0.00,22.2,21.7,00.0,31.2,23.9,09.7,0000.0,0003.76,0001.10,0000.41
2022-01-05 02:08:00,,0821.9,5.01,0.00,22.1,21.6,00.0,31.2,23.8,09.5,0000.0,0003.77,0001.14,0000.42
2022-01-05 02:09:00,,0822.0,4.98,0.00,22.1,21.5,00.0,31.1,23.7,09.4,0000.0,0003.46,0001.13,0000.42
2022-01-05 02:10:00,,0821.8,5.00,0.00,22.0,21.4,00.0,31.1,23.7,09.3,0000.0,0003.50,0001.17,0000.43
2022-01-05 02:11:00,,0821.8,5.01,0.00,22.0,21.4,00.0,31.1,23.7,09.2,0000.0,0003.65,0001.27,0000.44
2022-01-05 02:12:00,,0821.7,5.01,0.00,22.0,21.4,00.0,31.1,23.6,09.1,0000.0,0003.68,0001.27,0000.45
2022-01-05 02:13:00,,0821.7,4.99,0.00,22.0,21.3,00.0,31.1,23.6,09.0,0000.0,0003.74,0001.27,0000.45
2022-01-05 02:14:00,,0821.8,5.00,0.00,22.0,21.3,00.0,31.1,23.7,08.9,0000.0,0003.73,0001.25,0000.44
2022-01-05 02:15:00,,0821.7,4.99,0.00,22.0,21.3,00.0,31.1,23.7,08.9,0000.0,0003.72,0001.29,0000.45
2022-01-05 02:16:00,,0821.6,5.00,0.00,22.0,21.3,00.0,31.1,23.7,08.8,0000.0,0003.90,0001.33,0000.45
2022-01-05 02:17:00,,0821.6,5.01,0.00,22.0,21.3,00.0,31.1,23.7,08.8,0000.0,0004.04,0001.35,0000.44
2022-01-05 02:18:00,,0821.7,4.99,0.00,22.0,21.3,00.0,31.1,23.7,08.9,0000.0,0003.86,0001.29,0000.42
2022-01-05 02:19:00,,0821.8,5.01,0.00,22.0,21.3,00.0,31.1,23.7,08.8,0000.0,0004.04,0001.28,0000.41
2022-01-05 02:20:00,,0821.8,4.99,0.00,22.0,21.3,00.0,31.0,23.7,09.0,0000.0,0004.22,0001.28,0000.41
2022-01-05 02:21:00,,0821.8,5.01,0.00,22.0,21.3,00.0,31.0,23.7,09.0,0000.0,0004.15,0001.23,0000.41
2022-01-05 02:22:00,,0821.8,4.99,0.00,22.0,21.3,00.0,31.0,23.7,09.1,0000.0,0004.01,0001.16,0000.41
2022-01-05 02:23:00,,0821.6,5.01,0.00,22.0,21.3,00.0,31.0,23.7,09.1,0000.0,0004.72,0001.13,0000.40
2022-01-05 02:24:00,,0821.4,4.99,0.00,22.0,21.4,00.0,31.0,23.8,09.1,0000.0,0005.41,0001.15,0000.40
2022-01-05 02:25:00,,0821.8,5.01,0.00,22.1,22.1,00.0,31.1,24.0,08.9,0000.0,0005.60,0001.15,0000.41
2022-01-05 02:26:00,,0822.1,5.00,0.00,22.2,23.0,00.0,31.1,24.2,08.8,0000.0,0005.60,0001.13,0000.41
2022-01-05 02:27:00,,0821.9,4.99,0.00,22.4,23.2,00.0,31.2,24.4,08.8,0000.0,0006.04,0001.09,0000.41
2022-01-05 02:28:00,,0821.7,5.01,0.00,22.4,23.0,00.0,31.2,24.4,08.7,0000.0,0006.05,0001.09,0000.41
2022-01-05 02:29:00,,0821.6,5.01,0.00,22.4,22.7,00.0,31.2,24.3,08.3,0000.0,0006.43,0001.07,0000.42
2022-01-05 02:30:00,,0821.7,4.98,0.00,22.4,22.5,00.0,31.2,24.2,08.3,0000.0,0006.26,0001.06,0000.43
2022-01-05 02:31:00,,0821.9,5.01,0.00,22.4,22.3,00.0,31.2,24.1,08.4,0000.0,0006.27,0001.10,0000.42
2022-01-05 02:32:00,,0822.1,4.98,0.00,22.4,22.2,00.0,31.3,24.1,08.6,0000.0,0006.47,0001.15,0000.42
2022-01-05 02:33:00,,0822.1,5.00,0.00,22.4,22.1,00.0,31.3,24.1,08.5,0000.0,0006.55,0001.17,0000.41
2022-01-05 02:34:00,,0821.8,5.01,0.00,22.3,22.0,00.0,31.3,24.1,08.6,0000.0,0005.69,0001.15,0000.41
2022-01-05 02:35:00,,0822.0,4.99,0.00,22.3,21.9,00.0,31.3,24.0,09.0,0000.0,0004.94,0001.11,0000.41
2022-01-05 02:36:00,,0822.1,5.00,0.00,22.3,21.8,00.0,31.3,24.0,08.6,0000.0,0004.93,0001.13,0000.41
2022-01-05 02:37:00,,0821.8,5.01,0.00,22.3,21.7,00.0,31.3,24.0,08.6,0000.0,0005.07,0001.13,0000.41
2022-01-05 02:38:00,,0822.2,4.99,0.00,22.3,21.7,00.0,31.3,24.0,08.6,0000.0,0004.32,0001.13,0000.41
2022-01-05 02:39:00,,0822.0,5.00,0.00,22.3,21.7,00.0,31.3,24.0,08.7,0000.0,0004.07,0001.09,0000.41
2022-01-05 02:40:00,,0821.9,5.00,0.00,22.3,21.6,00.0,31.3,24.0,08.7,0000.0,0003.79,0001.10,0000.40
2022-01-05 02:41:00,,0821.9,5.00,0.00,22.2,21.6,00.0,31.3,23.9,09.0,0000.0,0003.45,0001.10,0000.40
2022-01-05 02:42:00,,0821.9,5.01,0.00,22.2,21.5,00.0,31.2,23.9,09.4,0000.0,0003.22,0001.04,0000.41
2022-01-05 02:43:00,,0821.9,4.99,0.00,22.2,21.4,00.0,31.2,23.8,09.4,0000.0,0003.12,0001.04,0000.41
2022-01-05 02:44:00,,0822.0,5.01,0.00,22.1,21.3,00.0,31.2,23.7,09.5,0000.0,0003.39,0001.03,0000.42
2022-01-05 02:45:00,,0821.8,5.00,0.00,22.1,21.3,00.0,31.2,23.7,09.4,0000.0,0003.82,0001.06,0000.42
2022-01-05 02:46:00,,0821.7,4.99,0.00,22.1,21.2,00.0,31.2,23.6,09.6,0000.0,0004.82,0001.08,0000.42
2022-01-05 02:47:00,,0821.8,5.01,0.00,22.0,21.3,00.0,31.2,23.6,09.7,0000.0,0004.77,0001.13,0000.44
2022-01-05 02:48:00,,0822.1,5.00,0.00,22.1,22.0,00.0,31.2,23.9,09.6,0000.0,0004.72,0001.19,0000.45
2022-01-05 02:49:00,,0822.1,4.99,0.00,22.3,22.8,00.0,31.2,24.2,09.7,0000.0,0004.84,0001.24,0000.46
2022-01-05 02:50:00,,0822.2,5.01,0.00,22.4,23.4,00.0,31.3,24.5,09.4,0000.0,0004.99,0001.31,0000.48
2022-01-05 02:51:00,,0822.4,5.00,0.00,22.5,23.2,00.0,31.3,24.4,09.3,0000.0,0004.91,0001.30,0000.49
2022-01-05 02:52:00,,0822.3,5.00,0.00,22.5,22.9,00.0,31.3,24.3,09.6,0000.0,0005.06,0001.32,0000.49
2022-01-05 02:53:00,,0822.1,5.01,0.00,22.5,22.6,00.0,31.3,24.3,09.6,0000.0,0005.25,0001.32,0000.49
2022-01-05 02:54:00,,0822.1,4.99,0.00,22.4,22.4,00.0,31.3,24.1,09.5,0000.0,0005.83,0001.38,0000.50
2022-01-05 02:55:00,,0822.2,5.00,0.00,22.4,22.2,00.0,31.3,24.0,09.8,0000.0,0005.91,0001.48,0000.51
2022-01-05 02:56:00,,0822.1,4.99,0.00,22.3,22.0,00.0,31.3,24.0,09.8,0000.0,0006.74,0001.53,0000.52
2022-01-05 02:57:00,,0822.2,5.00,0.00,22.3,21.8,00.0,31.3,23.9,10.1,0000.0,0006.30,0001.55,0000.54
2022-01-05 02:58:00,,0822.1,5.02,0.00,22.2,21.6,00.0,31.3,23.8,10.0,0000.0,0007.45,0001.53,0000.53
2022-01-05 02:59:00,,0822.2,4.99,0.00,22.2,21.5,00.0,31.3,23.8,09.9,0000.0,0007.33,0001.50,0000.53
